Terminal Aerodrome Forecast
Issued by NWS

Home | Current Version | Previous Version | Text Only | Print | Product List | Glossary On
Versions: 1 2 3 4 5 6 7 8 9 10 11 12 13 14
000
FTUS41 KPBZ 052320
TAFLBE
TAF
KLBE 052320Z 0600/0624 05006KT P6SM FEW050 BKN200
     FM061000 13005KT P6SM VCSH BKN050
     FM061400 16004KT 6SM -SHRA VCTS BKN035CB OVC050=

USA.gov is the U.S. government's official web portal to all federal, state and local government web resources and services.